Theta_e
327 326 326 326 324 323 323 321 321 320 320 322 325 326 327 326 325 326 326 326 326 325 325 326 325 325 325 324 323 322 321 321 322 323 323 323 323 323 323 322 321 321 321 321 321 322 322 323 324 323 323 322 322 323 322 322 322 322 323 324 324 325 326
326 326 328 326 323 324 323 321 321 322 322 322 322 324 325 325 325 325 325 326 327 326 326 326 326 326 326 325 325 325 324 323 323 323 323 323 323 323 324 324 324 324 323 323 323 323 323 324 324 324 324 323 323 323 322 321 320 321 322 323 323 324 325
327 326 327 325 321 326 327 323 323 324 324 323 322 322 323 324 324 325 325 326 326 327 326 327 326 327 327 326 327 326 326 326 325 324 324 324 324 324 324 325 324 324 324 324 324 324 324 324 324 324 324 323 324 324 322 320 321 321 322 323 323 323 324
328 327 328 328 326 328 328 325 324 325 324 324 324 325 325 326 326 327 327 327 327 328 327 327 327 327 327 327 327 327 327 327 327 327 327 326 326 325 325 325 324 324 324 323 324 324 323 324 323 324 324 323 324 324 322 321 321 322 322 322 323 324 324
326 328 330 330 330 330 329 327 327 327 326 326 327 328 327 327 328 328 329 329 329 329 329 329 329 328 328 328 328 328 328 328 327 328 328 327 327 327 326 326 325 325 325 324 323 323 323 323 323 323 323 323 323 323 323 323 322 322 322 322 323 324 324
322 327 330 330 329 329 329 329 330 329 329 329 328 329 328 328 328 328 329 329 329 329 329 329 329 329 329 329 329 329 329 329 329 328 329 328 328 328 328 327 326 326 326 324 324 324 324 324 324 323 322 323 323 323 323 322 322 322 322 322 323 325 324
320 322 328 329 328 327 329 330 330 330 330 331 330 329 328 328 329 328 329 329 329 329 329 329 329 329 329 329 330 330 330 330 330 329 330 330 330 330 330 328 328 327 327 326 325 325 325 325 324 324 324 323 323 323 323 322 322 321 321 321 322 324 324
323 325 325 325 325 327 330 331 330 329 330 331 330 329 328 329 329 329 329 329 330 330 330 330 330 331 331 330 331 331 331 331 331 330 330 330 330 330 330 330 330 329 328 327 327 326 326 325 325 324 324 324 324 324 323 323 322 322 321 321 321 322 323
322 327 326 324 325 327 330 332 331 330 330 330 330 329 329 329 329 330 329 330 330 330 331 331 331 331 331 331 330 330 331 331 331 331 331 331 330 330 330 330 330 329 329 328 328 328 327 326 326 325 324 325 325 325 325 324 324 323 322 321 321 321 321
321 327 328 328 329 327 327 330 330 330 330 329 329 329 329 329 330 330 330 330 330 330 331 330 330 328 327 327 327 326 327 327 327 329 331 331 331 331 331 330 329 329 329 330 329 329 328 328 327 327 326 325 325 325 325 325 325 325 324 323 322 321 321
326 330 331 331 330 328 328 330 329 330 330 329 329 329 329 330 330 330 330 330 330 329 328 326 324 321 319 319 320 322 323 323 323 324 326 328 329 330 330 330 330 330 330 330 329 329 329 328 328 328 328 327 326 326 325 326 325 325 324 324 324 323 322
328 331 330 328 328 329 331 331 330 329 329 329 329 329 329 330 330 330 330 330 328 325 321 319 317 315 314 314 315 318 320 320 322 323 323 325 325 327 328 329 329 330 329 329 328 328 328 328 328 328 328 327 327 327 326 326 326 326 325 326 326 325 324
327 329 327 326 327 330 330 329 329 329 329 329 330 330 330 330 330 330 329 327 323 319 317 315 314 313 313 312 313 315 318 321 325 325 326 326 323 323 325 327 328 328 328 327 327 327 327 327 327 327 327 327 327 327 326 326 326 326 326 326 326 326 325
325 326 324 325 327 329 328 329 329 329 330 330 330 330 330 329 329 329 327 323 318 316 315 314 313 312 313 313 312 314 319 323 326 326 326 325 323 323 325 326 326 326 326 326 326 327 327 326 326 326 326 326 326 326 326 326 326 326 325 325 325 326 326
323 323 324 326 328 328 328 329 329 330 330 330 330 330 329 329 329 327 322 318 315 315 314 313 312 312 314 316 316 316 319 322 323 324 325 324 322 322 323 324 324 325 325 325 325 325 325 324 324 324 325 325 325 325 325 324 324 325 324 324 324 324 325
323 323 325 327 328 329 329 329 329 330 330 330 330 329 329 329 328 323 318 316 315 314 313 312 312 312 313 316 318 317 317 318 319 320 321 320 319 319 321 322 322 323 323 322 321 321 321 321 321 322 323 324 324 325 324 323 323 323 323 323 323 323 324
323 324 326 328 328 329 329 329 329 329 329 329 329 329 329 328 324 319 316 316 314 313 313 313 313 313 312 313 314 315 315 314 314 316 316 315 315 318 320 319 317 316 315 315 315 315 314 314 316 317 318 319 320 321 321 322 322 321 321 320 321 321 322
324 325 327 328 328 329 328 329 329 329 329 329 329 328 328 324 319 317 316 315 314 313 313 313 313 313 312 311 310 310 310 310 311 311 312 311 313 317 319 315 310 308 308 308 309 308 307 307 309 312 311 311 314 313 314 318 320 320 319 319 318 318 319
325 327 328 328 328 329 329 329 329 329 329 328 328 328 325 320 317 316 315 314 313 313 313 312 312 312 310 309 309 308 308 308 308 308 308 309 310 314 316 314 309 306 304 304 304 303 304 303 305 309 308 306 308 308 310 314 316 316 318 318 317 317 317
327 328 328 328 329 328 328 328 329 328 328 328 327 325 321 318 317 316 314 313 313 313 312 312 311 309 309 308 307 307 307 306 306 306 305 305 305 306 308 308 305 303 301 302 302 301 302 301 302 308 309 305 306 308 310 313 314 314 315 315 315 316 316
328 328 328 328 328 328 328 328 328 328 327 328 326 322 319 318 317 315 314 313 312 312 311 311 309 308 308 307 306 305 305 304 304 303 303 303 303 304 304 302 301 302 301 302 303 302 303 302 303 307 308 305 307 311 314 315 314 314 314 314 314 314 315
327 327 327 327 327 328 327 327 327 327 327 326 323 319 318 318 317 314 313 313 312 311 311 309 307 306 306 306 304 304 303 303 303 303 303 303 303 304 306 304 301 302 303 303 304 304 304 304 304 306 306 306 308 311 314 315 315 315 314 314 315 315 315
327 327 327 327 327 327 327 327 327 326 326 324 320 318 318 317 315 313 313 313 312 311 310 308 306 305 304 304 303 303 303 303 303 303 303 304 305 306 308 307 304 303 303 304 305 304 304 305 305 305 306 307 308 310 312 313 314 314 314 314 315 314 314
326 326 326 326 326 326 327 327 327 326 325 322 319 318 317 315 314 313 313 312 311 310 308 306 305 304 304 304 303 303 304 304 303 304 305 306 308 309 309 308 306 303 302 303 304 304 304 304 305 305 306 307 308 309 310 310 311 312 312 313 314 314 314
325 325 325 325 326 327 326 326 326 325 323 320 318 317 315 313 313 313 312 312 310 309 307 305 304 304 304 303 302 303 305 304 304 305 306 307 309 310 310 308 306 304 302 301 302 302 303 304 305 306 307 308 308 308 307 308 309 309 310 311 312 312 312
326 326 326 326 327 327 326 326 325 324 321 318 317 315 313 313 312 313 312 311 309 307 305 305 304 303 303 302 302 304 305 304 304 304 305 306 307 308 309 310 309 307 304 301 300 299 300 304 307 306 307 308 309 309 308 305 305 306 308 309 310 310 310
327 327 326 326 327 327 326 325 324 322 319 316 315 314 313 312 312 312 312 310 308 306 305 304 303 303 303 302 301 304 305 304 304 303 303 305 306 307 308 309 309 308 305 302 300 298 298 302 306 306 305 306 307 309 308 304 301 302 304 305 307 307 308
326 326 326 327 327 327 325 325 323 320 317 315 314 313 312 313 312 312 311 309 307 305 304 304 303 303 303 302 302 305 307 306 306 305 304 306 309 308 308 309 309 308 305 301 299 299 297 300 305 305 305 305 306 308 307 302 298 299 300 300 301 303 304
326 326 326 326 327 326 325 323 321 317 315 313 313 312 313 313 312 311 310 308 306 305 304 304 303 304 303 303 305 308 309 308 307 307 307 308 309 307 307 308 308 306 304 299 298 299 298 300 304 304 304 305 305 306 306 301 298 299 299 298 298 299 299
326 326 326 327 326 325 324 321 318 315 314 313 312 313 313 312 310 310 309 307 305 304 304 304 303 304 304 304 307 309 309 308 308 308 308 308 308 305 303 304 305 304 301 298 298 299 297 299 302 303 302 303 304 304 304 300 298 299 298 298 299 298 298
326 326 326 326 325 324 322 319 315 314 313 312 312 312 311 310 310 310 309 307 305 304 304 304 304 304 305 304 306 308 309 308 308 308 309 309 308 305 303 303 302 301 300 298 298 297 295 297 300 300 299 301 303 302 300 297 297 298 296 298 301 301 300
326 325 326 326 325 323 319 316 313 313 312 311 311 310 309 310 311 311 309 306 304 304 304 304 305 305 305 304 305 307 308 307 307 307 308 308 308 307 305 303 300 299 299 298 297 296 294 295 297 296 297 299 299 298 296 295 297 296 294 298 300 300 302
326 326 326 325 323 320 316 313 312 312 311 311 311 310 310 311 312 310 307 305 304 305 305 305 305 305 305 305 304 305 307 306 306 307 307 308 308 307 307 305 300 298 298 296 295 295 294 294 295 294 295 296 295 295 294 295 296 296 297 301 302 301 302
325 325 324 324 322 318 314 313 312 314 313 311 310 310 311 312 312 310 306 305 306 306 306 306 306 306 306 305 303 303 305 303 303 306 308 307 307 306 307 306 301 297 296 295 294 294 294 294 294 294 294 294 294 295 294 295 299 301 302 304 304 303 303
325 325 324 324 321 316 313 313 314 314 312 309 309 311 313 312 312 310 308 307 308 307 306 306 307 306 306 305 303 302 301 298 299 305 308 307 306 306 306 304 299 294 295 295 294 294 294 294 294 294 294 294 295 294 294 297 302 303 303 303 303 303 303
325 324 323 321 317 314 313 313 313 312 309 307 310 314 314 312 311 310 310 311 311 310 308 307 307 306 305 304 302 300 298 295 297 303 307 306 305 306 305 302 297 294 294 295 294 294 295 294 295 295 294 294 294 294 296 299 302 303 302 303 302 301 301
324 324 321 317 314 313 314 313 312 311 308 308 312 314 313 312 312 311 312 312 311 311 310 307 306 305 303 303 301 298 295 295 295 299 304 305 304 302 301 298 295 294 295 294 294 294 294 294 294 294 294 295 296 297 299 300 301 301 301 302 301 300 300
Wind_Speed
6 6 6 6 7 7 8 7 8 8 9 9 9 8 7 8 8 9 8 8 9 10 10 10 11 11 12 15 17 18 19 19 17 14 12 11 9 9 9 8 8 7 7 8 7 6 5 4 4 6 8 9 6 5 6 6 6 5 3 3 3 3 4
5 5 6 6 6 6 7 7 7 8 9 10 10 10 10 10 10 10 11 10 9 9 9 10 12 12 13 14 14 15 16 17 18 15 13 12 11 10 9 8 8 6 6 7 7 7 6 5 5 7 9 9 7 7 8 7 6 5 4 4 4 3 4
4 5 5 5 5 6 6 7 8 8 9 10 11 13 13 13 13 14 14 14 13 13 12 13 14 13 13 13 13 14 14 13 14 14 13 12 11 10 9 9 8 8 7 7 8 7 7 7 7 8 9 10 8 8 10 9 5 3 4 5 5 4 5
3 4 4 4 5 6 6 7 8 9 10 11 12 13 14 14 14 14 14 14 14 13 13 14 14 12 12 13 12 13 12 11 11 11 10 9 8 8 8 8 8 8 8 8 8 8 9 8 9 9 9 10 9 8 10 10 7 4 4 4 5 5 6
3 4 4 5 5 6 7 8 9 9 10 11 12 12 12 13 12 12 12 12 11 11 11 11 12 12 11 11 11 11 11 11 11 9 7 6 6 6 6 6 6 7 7 6 6 7 8 8 9 10 10 10 10 9 9 10 9 6 3 3 4 6 7
4 6 5 5 6 7 8 8 8 9 9 9 10 10 10 11 11 10 10 10 9 10 10 9 10 10 10 9 9 10 9 8 8 8 7 6 6 5 5 5 5 5 5 5 5 5 7 8 9 10 10 10 10 10 9 9 8 6 5 5 4 5 6
6 7 8 7 8 8 8 8 8 8 8 8 8 8 9 9 8 8 8 7 7 7 7 8 8 8 9 9 9 9 9 8 7 7 6 6 6 5 5 5 5 6 6 6 6 5 6 7 8 9 11 11 10 10 9 8 7 7 6 6 5 5 5
8 8 9 10 10 9 8 7 7 8 8 7 6 7 7 6 6 6 6 6 7 7 8 9 10 10 10 10 10 10 10 9 8 9 8 8 8 7 7 7 7 8 8 7 6 6 6 7 7 7 8 11 12 11 10 9 8 7 7 7 6 5 5
11 10 10 11 10 10 8 6 6 6 6 5 5 5 4 4 5 6 7 9 10 11 11 12 13 13 14 14 13 12 12 11 11 11 11 10 10 9 9 8 8 9 9 8 7 8 8 8 8 8 7 9 11 12 11 11 10 9 8 8 7 5 4
13 11 10 9 8 9 9 8 6 5 5 4 3 3 3 5 6 7 9 11 13 14 15 15 15 16 15 14 14 13 13 13 13 12 12 11 11 11 10 9 9 9 9 9 9 9 10 9 10 10 9 9 10 11 12 13 12 12 11 9 8 8 8
12 10 9 8 8 8 7 6 5 4 3 3 2 2 3 5 7 8 10 12 14 15 16 17 17 17 16 15 14 12 12 12 12 11 11 11 11 10 11 10 10 10 10 10 10 10 10 10 11 11 11 11 11 12 13 14 14 14 13 11 10 11 11
13 10 9 10 9 8 6 5 5 4 3 2 0 2 4 6 8 10 11 12 14 15 16 17 17 17 17 16 15 13 12 12 11 10 10 10 10 10 10 10 10 9 9 9 10 10 9 9 10 9 9 10 11 12 13 14 16 17 16 15 14 14 14
13 11 11 11 10 8 7 7 6 5 3 2 2 3 5 7 9 11 12 12 14 15 15 15 15 15 15 16 15 14 13 12 11 10 10 9 9 9 9 9 9 9 9 9 10 10 10 10 10 9 8 9 9 10 12 13 14 17 16 16 17 17 17
14 13 12 12 10 9 9 8 6 5 4 4 4 5 7 9 10 11 11 13 14 14 14 14 14 14 14 14 14 14 13 12 11 10 10 10 9 9 9 9 9 10 10 9 9 9 8 9 9 9 9 9 8 9 11 12 13 15 15 14 15 17 18
14 14 13 12 11 10 8 8 7 6 5 6 6 7 8 10 10 10 11 13 13 13 13 13 13 13 12 12 12 13 13 12 12 11 10 11 11 10 9 9 10 10 10 10 10 9 9 10 10 10 10 10 10 10 11 12 13 14 15 15 15 15 15
15 14 13 12 11 10 9 9 8 7 7 7 8 8 9 9 9 10 12 13 13 13 13 13 13 13 12 11 11 12 12 12 12 12 12 13 12 11 10 10 10 10 10 11 11 11 12 12 12 12 11 10 10 10 11 12 13 14 15 15 15 16 15
15 14 13 12 11 10 10 10 9 8 8 9 9 9 8 8 8 9 11 11 11 12 12 12 12 12 11 11 11 11 11 12 12 12 13 14 14 13 11 10 11 11 11 12 12 12 12 12 12 12 12 12 11 11 11 11 12 13 15 16 16 16 16
15 14 12 12 12 11 11 11 10 10 10 10 9 8 7 7 7 9 10 9 9 10 11 11 11 11 12 12 11 11 11 12 12 13 13 14 14 13 11 12 13 12 12 13 13 14 14 14 13 13 13 13 12 12 12 11 11 13 14 16 16 17 16
15 14 13 13 13 12 12 12 11 11 11 10 8 7 7 6 7 8 8 8 8 9 10 9 10 10 11 12 12 12 12 12 13 13 13 13 13 12 11 12 13 13 13 14 14 14 14 14 14 13 14 14 13 14 13 12 12 12 12 13 14 15 15
15 14 14 14 14 13 13 13 13 12 11 9 8 7 6 6 7 8 7 6 7 8 8 8 9 10 10 11 11 11 11 12 12 12 12 12 12 12 11 11 12 13 13 14 14 14 15 15 14 13 14 15 14 14 13 12 12 12 12 12 13 13 13
16 16 16 15 15 15 15 14 13 13 11 9 8 7 7 6 7 7 6 5 6 7 7 7 8 9 10 10 10 10 10 11 11 11 12 12 12 12 12 12 13 13 13 14 15 15 15 16 16 14 15 16 15 14 13 13 13 12 12 13 13 12 13
18 17 17 17 17 16 16 15 14 12 11 10 9 8 7 7 6 6 5 5 5 6 6 6 7 8 8 8 9 10 10 10 11 11 11 11 12 12 12 13 13 13 13 14 14 15 15 16 16 16 16 16 15 14 13 13 13 13 13 13 13 13 13
19 19 19 18 18 17 16 15 14 13 12 11 10 8 7 6 5 4 3 4 4 5 6 7 7 8 7 7 8 9 10 10 11 11 11 11 11 11 11 12 12 12 13 14 14 15 15 15 16 16 16 15 15 15 14 13 13 13 13 13 13 14 14
20 20 20 20 19 18 17 16 15 14 13 12 11 9 7 6 4 3 2 2 3 4 6 6 7 7 7 8 8 9 10 10 10 10 10 10 10 10 10 11 11 12 12 13 14 14 15 15 15 16 16 15 15 15 15 14 14 14 14 14 14 14 14
22 22 22 21 20 19 18 17 16 15 14 13 11 9 7 6 4 3 1 1 2 4 5 6 6 6 7 8 9 10 10 9 10 10 9 9 9 9 9 10 11 12 12 13 13 14 15 16 16 17 17 18 17 15 14 14 14 14 14 14 15 15 15
23 23 23 22 21 20 19 18 17 17 15 14 12 10 8 6 5 4 2 0 1 3 4 5 5 6 7 9 10 10 10 10 10 10 9 9 8 8 9 9 10 12 13 14 14 15 15 16 16 16 16 16 18 18 16 15 15 15 14 14 15 15 15
24 24 24 23 22 20 19 20 19 18 16 14 12 10 8 7 6 5 3 1 1 3 4 4 5 7 8 9 10 11 11 11 11 10 9 9 8 8 9 9 9 11 13 15 16 17 17 16 15 16 14 13 14 15 16 17 16 16 15 14 15 16 16
26 26 25 24 23 21 22 22 20 18 16 14 12 9 8 8 7 6 4 3 3 3 4 5 6 7 8 10 10 10 10 10 10 9 8 8 8 8 8 8 9 10 12 15 16 18 18 17 15 15 15 13 12 12 14 17 17 16 16 15 16 17 17
28 28 27 25 23 23 24 23 20 19 17 14 11 10 11 10 7 6 5 4 3 4 4 5 6 7 9 11 10 8 7 7 8 7 7 7 6 6 7 7 8 9 12 15 16 18 19 18 15 15 15 15 14 13 13 17 19 18 18 18 18 18 18
30 30 28 26 25 26 25 23 21 19 17 14 13 13 12 9 6 6 6 5 4 4 4 5 6 7 8 9 8 5 3 5 6 5 5 6 4 5 6 7 8 10 13 16 17 18 20 18 16 16 17 16 15 13 15 19 20 19 20 21 20 21 21
31 31 28 27 27 27 25 23 21 19 16 14 13 13 9 5 6 8 8 6 5 3 4 5 5 6 6 7 7 5 3 4 4 4 4 4 3 4 5 6 8 11 13 16 17 18 19 18 16 17 17 16 15 15 17 20 20 20 21 20 20 20 20
30 29 27 26 27 26 25 23 21 19 16 13 11 8 6 7 11 11 9 7 5 3 3 3 3 4 5 5 6 5 3 4 4 3 2 2 3 3 5 8 12 13 14 16 17 18 19 18 16 17 17 16 16 17 18 19 19 20 20 19 18 19 18
27 25 23 23 25 25 23 21 20 17 14 11 7 5 7 12 13 11 9 8 5 3 2 0 1 3 4 5 6 6 4 5 4 2 1 2 2 2 3 7 13 16 15 17 18 19 19 19 18 18 18 17 17 18 19 18 18 19 19 17 16 17 16
25 26 25 25 25 24 23 21 18 14 11 10 7 7 11 14 12 11 11 8 6 5 4 2 3 4 4 6 7 7 6 6 4 1 1 2 1 3 2 4 12 16 16 17 19 19 20 20 19 19 19 20 20 20 19 18 16 16 16 14 14 14 13
24 27 28 27 26 26 25 21 16 12 10 10 10 13 15 15 13 12 11 8 6 6 6 5 5 5 4 6 9 11 9 6 3 3 2 1 2 3 3 5 12 16 16 17 19 19 21 21 20 21 22 22 22 21 20 16 13 13 14 13 13 14 14
23 27 27 26 25 25 23 18 14 12 12 13 15 16 16 15 14 13 10 8 7 7 7 6 6 5 4 7 11 12 9 5 4 4 2 2 2 3 3 7 12 15 16 17 19 20 21 21 21 22 23 24 24 24 21 15 11 13 13 13 14 15 15
21 25 26 25 24 20 17 15 13 12 14 16 18 17 16 15 14 12 10 8 7 6 6 6 6 4 5 9 11 9 5 4 4 4 2 2 3 4 6 9 12 14 16 17 19 21 23 23 22 22 24 24 23 20 18 15 13 13 14 14 15 16 16
Wind_Direction
71 64 64 62 58 64 64 59 58 55 57 63 66 69 67 66 68 67 65 63 59 55 47 48 58 58 54 55 56 59 60 61 63 59 52 50 48 44 42 41 42 44 41 38 33 20 7 1 13 12 3 3 7 355 332 303 285 282 274 274 272 271 273
70 66 64 60 60 66 63 60 64 61 60 66 71 78 79 76 76 75 74 71 68 69 64 59 62 61 58 56 54 56 56 56 59 60 58 55 53 50 44 40 37 37 40 36 32 32 23 11 12 9 4 7 9 7 359 336 302 275 258 260 263 261 261
73 72 73 67 67 68 62 63 69 70 70 74 78 82 83 81 80 79 76 72 69 70 68 62 58 55 51 50 49 50 49 47 48 51 52 51 50 47 45 44 40 37 40 31 23 25 24 15 12 9 8 8 5 2 2 359 350 308 264 255 261 263 260
89 88 87 80 73 73 73 73 76 79 83 85 85 84 83 81 77 74 72 69 65 63 60 56 53 48 44 42 40 40 40 38 36 38 40 37 37 36 33 37 40 38 35 26 21 21 18 15 10 8 8 5 3 1 359 5 12 345 290 265 261 265 260
120 113 107 99 94 89 89 90 89 89 90 90 89 84 81 79 74 69 66 63 59 55 53 50 47 42 37 34 32 29 27 27 26 23 21 18 21 23 16 17 26 27 21 12 16 17 13 9 2 358 359 358 356 357 356 1 5 359 341 308 275 267 263
134 129 123 114 115 112 104 101 99 99 98 94 91 87 84 80 75 71 66 61 56 51 46 42 38 34 30 23 18 15 10 9 9 5 3 2 0 359 355 358 2 360 349 341 348 358 359 357 351 348 349 349 348 348 349 354 358 1 356 335 307 281 266
142 139 138 133 130 123 115 112 111 110 107 100 95 95 93 86 78 74 67 60 53 42 34 28 22 17 15 9 2 358 351 348 349 347 342 337 333 328 325 326 325 322 317 316 321 326 335 337 337 339 339 338 339 338 339 343 347 351 349 341 326 308 283
149 147 147 143 138 131 124 118 118 119 115 110 110 105 98 89 76 62 46 35 24 14 8 2 358 355 351 346 344 341 334 331 332 332 327 323 320 314 309 305 304 310 310 306 303 302 306 307 308 316 323 327 328 329 332 331 329 332 338 339 324 314 308
157 156 153 147 142 139 137 133 131 129 122 116 110 97 80 61 47 33 19 9 2 357 353 349 346 344 342 339 335 333 328 324 321 318 317 315 313 309 307 301 299 305 304 300 296 294 294 292 294 297 297 306 311 314 319 319 318 320 320 324 319 311 313
163 160 157 154 152 149 144 143 145 138 128 121 102 74 45 26 17 11 4 357 351 349 346 346 345 343 342 340 337 334 330 327 326 323 320 316 312 309 306 302 300 302 300 298 296 292 290 288 287 286 284 287 291 294 301 304 306 309 307 304 300 297 299
170 169 169 168 164 159 152 148 150 147 145 139 103 49 16 5 360 357 352 346 345 345 344 344 344 343 344 345 345 342 337 335 335 332 326 323 322 320 316 314 312 310 306 306 304 298 294 292 290 288 285 282 279 280 287 293 293 294 299 301 290 286 289
174 176 179 175 168 164 167 171 170 173 177 179 250 351 348 345 345 343 342 342 344 345 343 343 343 344 346 349 353 352 348 348 348 343 338 335 335 333 329 328 326 322 320 321 319 315 310 306 305 304 297 288 284 283 285 287 286 285 292 297 293 288 286
178 179 179 175 172 175 182 184 187 199 214 244 290 315 328 331 335 338 340 343 345 344 344 345 347 348 350 352 355 357 359 2 6 4 359 354 349 345 342 341 339 337 336 334 330 328 326 322 320 319 313 304 299 296 293 290 286 287 292 292 290 291 290
181 181 181 179 181 186 192 196 205 222 240 270 293 308 320 327 333 339 343 345 345 347 349 350 352 355 357 357 357 3 11 17 20 17 11 9 6 360 354 353 350 347 344 340 337 335 333 331 329 328 326 321 318 313 308 303 295 297 304 302 295 294 293
186 184 185 187 190 195 202 212 222 236 256 278 293 304 315 326 335 339 342 344 347 352 354 356 1 5 8 9 10 14 20 25 27 26 21 19 18 14 8 4 1 359 354 352 351 347 344 343 340 340 341 337 332 327 323 320 314 310 311 311 308 305 301
191 189 191 195 199 206 216 224 235 251 268 283 293 304 314 325 333 338 339 343 351 357 358 1 7 11 15 21 24 23 23 25 27 28 27 24 22 21 19 16 11 8 4 2 2 359 356 355 352 351 351 347 340 333 328 326 324 319 316 315 315 316 316
194 194 198 204 209 216 225 234 245 260 273 286 294 302 313 322 329 334 338 344 354 1 3 6 10 12 17 23 28 28 26 26 27 29 28 26 27 28 27 23 16 12 10 10 12 12 9 7 4 359 357 354 348 340 333 328 323 320 321 321 321 323 324
199 201 205 213 219 225 233 241 252 265 276 286 293 300 308 316 326 331 337 348 1 6 8 13 15 15 18 22 26 27 28 29 31 33 32 31 34 35 31 25 20 18 19 19 17 14 11 11 10 4 359 357 352 345 342 337 329 324 324 324 325 327 328
205 208 214 221 227 233 241 249 260 270 277 282 287 293 300 309 322 328 336 353 6 8 10 15 17 17 20 24 27 28 29 30 31 32 33 34 37 39 36 30 25 22 21 19 15 12 8 7 8 3 356 354 350 346 345 338 331 327 324 322 322 324 327
211 216 222 228 234 241 248 256 264 269 273 276 279 284 292 305 317 324 336 357 6 7 12 14 15 19 25 26 28 30 30 30 28 27 29 29 31 35 35 31 27 23 20 18 15 12 8 7 9 5 356 354 353 349 345 338 333 330 326 323 323 324 325
218 223 228 235 241 246 253 259 263 266 267 267 269 273 281 297 312 321 336 355 2 6 10 11 16 27 31 28 27 30 30 30 28 26 26 26 27 31 31 28 28 26 23 21 19 16 13 11 12 11 5 3 2 356 347 341 339 337 334 331 330 330 329
222 228 233 239 244 250 255 258 259 259 258 258 258 259 270 289 304 317 335 352 359 3 5 9 23 35 36 30 29 30 30 30 30 29 29 28 28 32 34 30 30 30 29 28 25 22 19 16 16 15 12 10 10 4 354 347 344 343 341 337 336 336 335
227 233 237 242 248 252 254 254 252 250 249 248 247 250 263 280 291 305 327 346 356 1 7 18 32 38 37 35 36 36 33 32 32 31 31 32 33 37 39 36 29 25 26 28 25 20 18 18 16 15 13 12 13 10 4 356 351 347 344 341 339 339 338
232 237 240 245 250 251 251 248 244 242 241 240 239 244 254 261 263 272 297 339 356 5 17 30 38 37 34 35 39 42 40 38 38 38 39 41 43 42 40 36 27 18 15 19 19 16 15 14 13 13 12 11 13 13 9 2 356 351 347 342 339 340 340
237 240 244 248 249 248 246 241 237 237 236 234 234 237 240 238 233 228 231 324 5 18 29 39 40 36 34 32 37 48 50 47 48 50 50 51 50 48 42 33 27 19 11 10 9 8 10 10 10 11 8 4 2 1 4 4 357 353 349 342 338 340 339
240 243 247 248 246 244 239 234 233 233 229 227 227 226 222 218 213 202 190 167 37 43 45 48 43 39 38 33 39 54 57 51 53 54 55 56 54 53 49 38 32 24 13 6 2 1 5 6 6 7 6 1 353 347 350 357 354 349 348 341 335 335 334
243 247 249 246 243 238 231 229 230 227 224 223 219 213 209 206 201 188 174 157 102 77 67 64 52 45 44 38 44 58 58 51 51 50 51 57 55 50 50 45 38 29 14 4 0 1 6 8 4 2 3 1 354 344 341 346 347 344 342 337 330 328 328
245 248 247 244 238 229 225 227 226 221 218 214 207 201 200 199 191 177 168 161 133 107 90 78 61 50 45 41 46 57 57 51 50 47 48 58 58 52 50 44 38 28 10 1 1 4 9 12 7 2 1 1 359 351 339 338 341 341 339 336 331 326 323
246 247 244 240 230 223 224 224 220 215 210 202 193 189 188 186 180 173 171 161 140 121 105 84 65 52 44 46 55 63 56 49 49 47 52 64 64 54 48 43 36 22 2 358 4 8 10 13 9 2 1 359 356 353 342 338 340 340 338 336 331 326 323
247 246 242 235 224 220 222 218 213 209 200 189 183 183 186 186 180 180 176 161 149 132 108 84 65 55 43 45 61 71 53 45 45 45 60 71 63 41 34 31 21 7 358 359 6 8 9 11 6 359 358 356 351 348 341 340 342 341 338 336 332 328 327
247 246 239 228 220 218 216 210 204 198 190 184 185 190 201 202 175 172 171 163 158 136 103 81 61 52 34 35 55 61 36 29 33 38 60 75 64 26 12 9 5 360 358 2 5 4 6 9 3 356 356 353 347 343 341 342 344 341 339 337 331 328 327
245 242 230 217 214 211 208 202 195 188 183 181 186 199 205 178 166 168 173 172 167 140 102 79 49 31 12 17 41 48 19 4 17 30 63 87 77 24 345 347 358 1 359 360 1 0 2 5 360 354 353 349 342 341 342 342 340 338 339 337 330 328 326
239 230 212 202 204 203 199 195 189 184 183 182 191 206 181 169 170 175 180 179 172 160 147 123 332 339 347 354 12 26 14 355 1 20 66 98 83 38 353 340 348 355 356 355 357 357 356 357 354 350 348 345 341 340 341 341 338 338 338 333 327 329 326
233 222 211 209 211 205 199 198 193 191 198 201 202 190 175 174 177 179 182 187 188 197 217 250 278 298 324 336 347 359 355 342 352 37 83 95 63 36 44 331 336 348 353 352 353 352 349 349 349 345 343 342 341 338 337 338 336 333 331 325 322 326 325
230 224 218 219 217 205 198 200 198 196 204 196 173 167 174 178 179 181 186 192 198 219 243 257 266 286 311 325 334 341 339 344 39 85 74 54 33 18 14 330 336 348 350 347 347 346 343 344 344 343 343 343 341 339 339 339 331 323 322 321 321 324 325
240 231 224 219 210 199 194 194 193 194 194 176 161 167 180 184 182 184 185 186 199 228 250 255 260 278 303 319 328 334 337 358 64 93 85 23 20 13 347 332 339 345 345 344 343 340 339 339 339 340 341 342 342 343 344 342 327 319 321 322 322 324 326
235 226 219 209 201 197 196 194 196 195 185 171 168 175 183 184 184 185 185 191 204 215 229 244 254 267 299 319 326 331 345 20 49 68 70 15 349 344 336 335 339 342 343 342 339 337 336 337 337 336 337 343 350 351 346 339 331 325 325 324 324 325 324